Tracking 30143 objects as of 20-Jan-2025
HD Live streaming from Space Station
objects crossing your sky now

STARLINK-6288

Track STARLINK-6288 now!
10-day predictions
STARLINK-6288 is classified as:


NORAD ID: 56398
Int'l Code: 2023-061AA
Perigee: 565.2 km
Apogee: 567.2 km
Inclination: 43.0 °
Period: 95.8 minutes
Semi major axis: 6937 km
RCS: Unknown
Launch date: May 4, 2023
Source: United States (US)
Launch site: AIR FORCE EASTERN TEST RANGE (AFETR)
Your satellite tracking list
Your tracking list is empty




NASA's NSSDC Master Catalog

Two Line Element Set (TLE):
1 56398U 23061AA  25019.74754261  .00002084  00000-0  16933-3 0  9995
2 56398  43.0011 274.0088 0001445 265.7184  94.3493 15.02537055 94635
Source of the keplerian elements: AFSPC